Location: Newark
(49.8753°N, 23.0797°E)
Time: 03:03:30
(UTC+00:00)

X-37B - Pass Details

Date: 01 July 2021
Orbit: 383 x 392 km, 45.0° (Epoch: 01 July)

Event Time Altitude Azimuth Distance (km) Brightness Sun altitude
Rises 20:48:07 0° 266° (W) 2,258 4.7 -13.5°
Reaches altitude 10° 20:50:51 10° 241° (WSW) 1,401 3.3 -13.7°
Enters shadow 20:52:20 14° 213° (SSW) 1,180 2.7 -13.8°
